This is the latest recevied weather packets stored in our database for station/object WX9WTF. If no packets are shown the sender has not sent any weather packets the latest 10 day(s).
| Time | Temp. | Humidity | Pressure | Rain* | Wind** | Luminosity | Snow |
|---|---|---|---|---|---|---|---|
| 1777730350 | 11.11° C | 61% | 1022.6 hPa | 0 mm | - | 411 W/m² | - |
| 1777730046 | 10.56° C | 63% | 1022.5 hPa | 0 mm | - | 394 W/m² | - |
| 1777729742 | 10.56° C | 62% | 1022.3 hPa | 0 mm | - | 375 W/m² | - |
| 1777729440 | 10.56° C | 63% | 1022.3 hPa | 0 mm | - | 355 W/m² | - |
| 1777729136 | 10.56° C | 63% | 1022.2 hPa | 0 mm | - | 337 W/m² | - |
| 1777728833 | 10° C | 64% | 1022.2 hPa | 0 mm | - | 317 W/m² | - |
| 1777728530 | 10° C | 64% | 1022.1 hPa | 0 mm | - | 298 W/m² | - |
| 1777728227 | 9.44° C | 66% | 1022.2 hPa | 0 mm | - | 279 W/m² | - |
| 1777727924 | 9.44° C | 66% | 1022 hPa | 0 mm | - | 261 W/m² | - |
| 1777727621 | 8.89° C | 67% | 1021.9 hPa | 0 mm | - | 230 W/m² | - |
| 1777727318 | 8.33° C | 68% | 1021.9 hPa | 0 mm | - | 223 W/m² | - |
| 1777727016 | 8.33° C | 69% | 1022.1 hPa | 0 mm | - | 205 W/m² | - |
| 1777726712 | 7.78° C | 70% | 1022.2 hPa | 0 mm | - | 189 W/m² | - |
| 1777726410 | 7.22° C | 70% | 1021.9 hPa | 0 mm | - | 175 W/m² | - |
| 1777726106 | 6.67° C | 70% | 1022 hPa | 0 mm | - | 160 W/m² | - |
| 1777725803 | 6.67° C | 70% | 1021.9 hPa | 0 mm | - | 91 W/m² | - |
| 1777725501 | 6.67° C | 70% | 1021.8 hPa | 0 mm | - | 78 W/m² | - |
| 1777725198 | 6.67° C | 71% | 1021.9 hPa | 0 mm | - | 83 W/m² | - |
| 1777724895 | 6.11° C | 71% | 1021.9 hPa | 0 mm | - | 80 W/m² | - |
| 1777724591 | 6.11° C | 71% | 1021.7 hPa | 0 mm | - | 88 W/m² | - |
| 1777724289 | 6.11° C | 72% | 1021.7 hPa | 0 mm | - | 72 W/m² | - |
| 1777723987 | 5.56° C | 74% | 1021.7 hPa | 0 mm | - | 49 W/m² | - |
| 1777723683 | 5.56° C | 74% | 1021.6 hPa | 0 mm | - | 45 W/m² | - |
| 1777723380 | 5° C | 74% | 1021.5 hPa | 0 mm | - | 43 W/m² | - |
| 1777723078 | 5° C | 77% | 1021.3 hPa | 0 mm | - | 33 W/m² | - |
* Rain latest hour (hover to see other rain measurements)
** Current wind speed in m/s (hover to see current wind gust speed)